Terminal Aerodrome Forecast
Issued by NWS

Home | Current Version | Previous Version | Text Only | Print | Product List | Glossary On
Versions: 1 2 3 4 5 6 7 8 9 10 11 12 13 14 15 16 17 18 19 20 21 22 23 24 25 26 27 28 29 30 31 32 33 34 35 36 37 38 39 40 41 42 43 44 45 46 47 48 49 50
000
FTUS45 KBOU 281435 AAB
TAFBJC
TAF AMD
KBJC 281435Z 2815/0112 VRB03KT 1/4SM FZFG VV001
      TEMPO 2815/2816 1SM BR SCT001 OVC003
     FM281630 33005KT P6SM SCT005 SCT025
     FM282000 01006KT 5SM -SHSN FEW008 BKN025 OVC040
     FM010000 35006KT 2SM -SN BR BKN008 OVC015
      TEMPO 0102/0106 3/4SM -SN BR OVC004
     FM010800 03006KT 4SM -SN BR SCT006 OVC012=

USA.gov is the U.S. government's official web portal to all federal, state and local government web resources and services.